OBJECT D, 54685

Orbit data source: Space-Track

You're viewing an Uncataloged Satellite

Recently launched and/or uncataloged satellites may have evolving metadata. Metadata may include but not limited to: Owner, Maufacturer, Bus, Motor, and Mission.

OBJECT D, 54685 is a Chinese satellite in SSO that was launched on Fri, 09 Dec 2022 UTC via a JIELONG-3 launch vehicle from the Yellow Sea Launch Area, China (YSLA). Unknown objects in Earth's orbit typically refer to objects detected orbiting the Earth but have not yet been identified or cataloged. These objects could be anything from previously untracked satellites, spent rocket stages, debris from satellite collisions, or even natural meteoroids temporarily captured by Earth's gravity.

Loading next visibility...
Identifier
54685, 2022-167D
Orbit
SSO
Country
Flag of CNCN / PRC
Related business
Manufacturer
Changguang WJ
Mission
Operational Commercial Imaging
Bus & Motor
JL-1, Unknown motor
Mass
42 kg wet, 42 kg dry
Launch date (UTC)
2022-12-09 (4 years ago)
Launch vehicle
JIELONG-3
Launch site
Yellow Sea Launch Area, China (YSLA)
Object type
Unknown
Shape & HBR
Box + 2 Pan, 0.8 m
Radar Cross Section
2.000 m², Medium (>0.1 m² and < 1m²)

Expand to show TLE details & history
Last TLE update: 22 hours ago

TLE from 22 hours ago
0 OBJECT D
1 54685U 22167D   26172.51319116  .00009725  00000-0  27610-3 0  9993
2 54685  97.6908 343.7130 0003623 106.5260 253.6382 15.36418236196110
Epoch: 2026-06-21T12:18Z
TLE epoch observation values (Epoch: 2026-06-21T12:18:59.716Z)
Latitude
0.00005°
Longitude
-110.74821°
Altitude
460.514 km
Speed
7.636 km/s
True Right ascension
22h 54m 51s
True Declination
0° 00' 00"
Sunlit
Object was in daylight at epoch
Visualization orbit readout
Latitude
Unknown
Longitude
Unknown
Altitude
Unknown
Speed
Unknown
Apparent Right ascension
Unknown
Apparent Declination
Unknown
Sunlit
N/A
Visualization observer readout
Local Sidereal Time
21:29:51
Azimuth
Unknown
Elevation
Unknown
Doppler factor
Unknown
Orbital elements
Apogee altitude
456.143 km
Perigee altitude
451.193 km
Semi-major axis
6,831.805 km
Eccentricity
0.00036
Inclination
97.6908°
RAAN
343.713°
Arg. of periapsis
106.526°
True anomaly
253.59837°
Mean anomaly
253.6382°
Eccentric anomaly
253.61828°
Mean motion
3.84362 °/min
Orbital period
93.66 mins
BSTAR
0.0002761
Loading maneuver chart data...
Computing Atmospheric mass density...
Loading historical data...
Loading historical data...
Loading historical data...
Loading historical data...
Loading historical data...
Loading historical data...
Loading historical data...

Documentation

Showing up to 5 results
|